TimeCST,TemperatureF,Dew PointF,Humidity,Sea Level PressureIn,VisibilityMPH,Wind Direction,Wind SpeedMPH,Gust SpeedMPH,PrecipitationIn,Events,Conditions,WindDirDegrees,DateUTC
12:15 AM,19.4,17.6,93,30.21,10.0,North,10.4,-,N/A,,Overcast,350,2013-02-28 06:15:00
12:34 AM,19.4,17.6,93,30.21,10.0,North,11.5,-,N/A,,Overcast,360,2013-02-28 06:34:00
1:14 AM,19.4,17.6,93,30.22,10.0,North,9.2,-,N/A,,Mostly Cloudy,360,2013-02-28 07:14:00
1:34 AM,19.4,17.6,93,30.22,10.0,North,10.4,-,N/A,,Mostly Cloudy,360,2013-02-28 07:34:00
1:55 AM,19.4,17.6,93,30.22,10.0,North,8.1,-,N/A,,Mostly Cloudy,360,2013-02-28 07:55:00
2:14 AM,19.4,17.6,93,30.23,10.0,North,8.1,-,N/A,,Mostly Cloudy,360,2013-02-28 08:14:00
2:34 AM,19.4,17.6,93,30.23,10.0,North,8.1,-,N/A,,Scattered Clouds,360,2013-02-28 08:34:00
2:55 AM,21.2,19.4,93,30.23,10.0,North,9.2,-,N/A,,Scattered Clouds,360,2013-02-28 08:55:00
3:14 AM,21.2,19.4,93,30.23,10.0,North,10.4,-,N/A,,Scattered Clouds,360,2013-02-28 09:14:00
3:34 AM,21.2,19.4,93,30.24,10.0,North,10.4,-,N/A,,Mostly Cloudy,360,2013-02-28 09:34:00
3:55 AM,21.2,19.4,93,30.24,10.0,North,9.2,-,N/A,,Mostly Cloudy,360,2013-02-28 09:55:00
4:14 AM,21.2,19.4,93,30.24,10.0,North,9.2,-,N/A,,Scattered Clouds,360,2013-02-28 10:14:00
4:34 AM,23.0,21.2,93,30.25,10.0,North,9.2,-,N/A,,Mostly Cloudy,10,2013-02-28 10:34:00
4:55 AM,23.0,21.2,93,30.26,10.0,North,9.2,-,N/A,,Mostly Cloudy,350,2013-02-28 10:55:00
5:14 AM,21.2,19.4,93,30.25,10.0,North,9.2,-,N/A,,Mostly Cloudy,360,2013-02-28 11:14:00
5:34 AM,21.2,19.4,93,30.26,10.0,North,9.2,-,N/A,,Mostly Cloudy,350,2013-02-28 11:34:00
5:55 AM,24.8,19.4,80,30.26,10.0,NE,13.8,-,N/A,,Mostly Cloudy,50,2013-02-28 11:55:00
6:14 AM,24.8,19.4,80,30.27,10.0,NE,10.4,-,N/A,,Mostly Cloudy,40,2013-02-28 12:14:00
6:34 AM,21.2,19.4,93,30.27,10.0,NNE,8.1,-,N/A,,Mostly Cloudy,20,2013-02-28 12:34:00
6:55 AM,24.8,17.6,74,30.28,10.0,NNE,9.2,-,N/A,,Mostly Cloudy,30,2013-02-28 12:55:00
7:14 AM,23.0,17.6,80,30.28,10.0,NNE,8.1,-,N/A,,Scattered Clouds,30,2013-02-28 13:14:00
7:35 AM,21.2,17.6,86,30.28,10.0,North,8.1,-,N/A,,Scattered Clouds,350,2013-02-28 13:35:00
7:55 AM,19.4,17.6,93,30.28,10.0,North,8.1,-,N/A,,Scattered Clouds,360,2013-02-28 13:55:00
8:14 AM,19.4,17.6,93,30.28,10.0,North,6.9,-,N/A,,Scattered Clouds,360,2013-02-28 14:14:00
8:35 AM,19.4,17.6,93,30.29,10.0,North,8.1,-,N/A,,Scattered Clouds,350,2013-02-28 14:35:00
8:55 AM,21.2,17.6,86,30.29,10.0,North,9.2,-,N/A,,Scattered Clouds,360,2013-02-28 14:55:00
9:14 AM,21.2,17.6,86,30.29,10.0,North,10.4,-,N/A,,Scattered Clouds,360,2013-02-28 15:14:00
9:35 AM,21.2,17.6,86,30.29,10.0,North,10.4,-,N/A,,Clear,350,2013-02-28 15:35:00
9:55 AM,21.2,19.4,93,30.30,10.0,North,10.4,-,N/A,,Scattered Clouds,360,2013-02-28 15:55:00
10:14 AM,21.2,19.4,93,30.30,10.0,North,11.5,-,N/A,,Scattered Clouds,360,2013-02-28 16:14:00
10:35 AM,21.2,19.4,93,30.30,10.0,North,11.5,-,N/A,,Clear,10,2013-02-28 16:35:00
10:54 AM,23.0,17.6,80,30.30,10.0,NNE,12.7,-,N/A,,Clear,30,2013-02-28 16:54:00
11:14 AM,23.0,17.6,80,30.30,10.0,NNE,11.5,-,N/A,,Scattered Clouds,30,2013-02-28 17:14:00
11:35 AM,23.0,17.6,80,30.30,10.0,NNE,11.5,-,N/A,,Clear,30,2013-02-28 17:35:00
11:54 AM,23.0,17.6,80,30.29,10.0,NNE,11.5,-,N/A,,Clear,20,2013-02-28 17:54:00
12:14 PM,23.0,17.6,80,30.30,10.0,NNE,10.4,-,N/A,,Clear,30,2013-02-28 18:14:00
12:35 PM,24.8,17.6,74,30.30,10.0,NNE,9.2,-,N/A,,Clear,30,2013-02-28 18:35:00
12:54 PM,24.8,15.8,69,30.29,10.0,NE,10.4,-,N/A,,Clear,50,2013-02-28 18:54:00
1:14 PM,24.8,15.8,69,30.29,10.0,NNE,10.4,-,N/A,,Clear,30,2013-02-28 19:14:00
1:35 PM,24.8,15.8,69,30.28,10.0,NNE,8.1,-,N/A,,Clear,30,2013-02-28 19:35:00
1:54 PM,24.8,15.8,69,30.28,10.0,NE,6.9,-,N/A,,Clear,40,2013-02-28 19:54:00
2:14 PM,24.8,15.8,69,30.27,10.0,NNE,10.4,-,N/A,,Clear,30,2013-02-28 20:14:00
2:35 PM,24.8,17.6,74,30.27,10.0,NNE,6.9,-,N/A,,Clear,30,2013-02-28 20:35:00
2:54 PM,24.8,15.8,69,30.28,10.0,NE,9.2,-,N/A,,Scattered Clouds,40,2013-02-28 20:54:00
3:15 PM,24.8,17.6,74,30.28,10.0,North,8.1,-,N/A,,Clear,10,2013-02-28 21:15:00
3:35 PM,24.8,17.6,74,30.28,10.0,NNE,9.2,-,N/A,,Scattered Clouds,20,2013-02-28 21:35:00
3:54 PM,24.8,15.8,69,30.28,10.0,NNE,9.2,-,N/A,,Scattered Clouds,20,2013-02-28 21:54:00
4:15 PM,24.8,17.6,74,30.28,10.0,North,8.1,-,N/A,,Clear,10,2013-02-28 22:15:00
4:35 PM,24.8,17.6,74,30.28,10.0,North,8.1,-,N/A,,Clear,10,2013-02-28 22:35:00
4:54 PM,24.8,17.6,74,30.28,10.0,NNE,6.9,-,N/A,,Clear,20,2013-02-28 22:54:00
5:15 PM,24.8,17.6,74,30.28,10.0,NNE,6.9,-,N/A,,Clear,20,2013-02-28 23:15:00
6:15 PM,23.0,17.6,80,30.30,10.0,North,8.1,-,N/A,,Clear,10,2013-03-01 00:15:00
6:35 PM,23.0,17.6,80,30.30,10.0,North,8.1,-,N/A,,Mostly Cloudy,10,2013-03-01 00:35:00
7:15 PM,21.2,17.6,86,30.31,10.0,NNE,5.8,-,N/A,,Scattered Clouds,20,2013-03-01 01:15:00
7:34 PM,23.0,15.8,74,30.31,10.0,NNE,6.9,-,N/A,,Clear,30,2013-03-01 01:34:00
7:54 PM,21.2,15.8,80,30.31,10.0,NE,5.8,-,N/A,,Scattered Clouds,40,2013-03-01 01:54:00
8:15 PM,21.2,15.8,80,30.32,10.0,North,4.6,-,N/A,,Clear,10,2013-03-01 02:15:00
8:34 PM,21.2,15.8,80,30.32,10.0,North,4.6,-,N/A,,Clear,10,2013-03-01 02:34:00
9:15 PM,19.4,15.8,86,30.32,10.0,North,4.6,-,N/A,,Overcast,360,2013-03-01 03:15:00
9:34 PM,17.6,15.8,93,30.33,10.0,North,4.6,-,N/A,,Overcast,350,2013-03-01 03:34:00
9:54 PM,17.6,15.8,93,30.32,10.0,NNE,4.6,-,N/A,,Overcast,20,2013-03-01 03:54:00
10:14 PM,17.6,14.0,86,30.32,10.0,NE,3.5,-,N/A,,Overcast,50,2013-03-01 04:14:00
10:34 PM,19.4,14.0,80,30.32,10.0,NE,3.5,-,N/A,,Mostly Cloudy,50,2013-03-01 04:34:00
10:55 PM,21.2,14.0,74,30.32,10.0,ENE,4.6,-,N/A,,Scattered Clouds,70,2013-03-01 04:55:00
11:14 PM,19.4,14.0,80,30.32,10.0,NE,4.6,-,N/A,,Scattered Clouds,40,2013-03-01 05:14:00
11:34 PM,19.4,14.0,80,30.33,10.0,NNE,4.6,-,N/A,,Mostly Cloudy,30,2013-03-01 05:34:00
11:55 PM,17.6,12.2,79,30.33,10.0,North,4.6,-,N/A,,Mostly Cloudy,10,2013-03-01 05:55:00